Time,TemperatureF,DewpointF,PressureIn,WindDirection,WindDirectionDegrees,WindSpeedMPH,WindSpeedGustMPH,Humidity,HourlyPrecipIn,Conditions,Clouds,dailyrainin,SoftwareType,DateUTC
2013-04-06 00:03:00,47.0,29.0,30.09,East,90,0.0,0.0,50,0.00,,,0.00,,2013-04-06 04:03:00,
2013-04-06 00:13:00,47.0,29.0,30.09,East,90,0.0,0.0,50,0.00,,,0.00,,2013-04-06 04:13:00,
2013-04-06 00:23:00,46.0,29.0,30.09,East,90,0.0,0.0,52,0.00,,,0.00,,2013-04-06 04:23:00,
2013-04-06 00:32:00,44.0,30.0,30.08,East,90,0.0,0.0,57,0.00,,,0.00,,2013-04-06 04:32:00,
2013-04-06 00:42:00,44.0,30.0,30.08,East,90,0.0,0.0,57,0.00,,,0.00,,2013-04-06 04:42:00,
2013-04-06 00:52:00,43.0,30.0,30.08,East,90,0.0,0.0,59,0.00,,,0.00,,2013-04-06 04:52:00,
2013-04-06 01:02:00,43.0,30.0,30.08,East,90,0.0,0.0,60,0.00,,,0.00,,2013-04-06 05:02:00,
2013-04-06 01:13:00,43.0,30.0,30.08,East,90,0.0,0.0,60,0.00,,,0.00,,2013-04-06 05:13:00,
2013-04-06 01:22:00,43.0,30.0,30.08,East,90,0.0,0.0,60,0.00,,,0.00,,2013-04-06 05:22:00,
2013-04-06 01:32:00,43.0,30.0,30.08,East,90,0.0,0.0,60,0.00,,,0.00,,2013-04-06 05:32:00,
2013-04-06 01:42:00,43.0,30.0,30.08,East,90,0.0,0.0,60,0.00,,,0.00,,2013-04-06 05:42:00,
2013-04-06 01:52:00,43.0,30.0,30.08,East,90,0.0,0.0,60,0.00,,,0.00,,2013-04-06 05:52:00,
2013-04-06 02:02:00,42.0,31.0,30.07,East,90,0.0,0.0,64,0.00,,,0.00,,2013-04-06 06:02:00,
2013-04-06 02:12:00,42.0,31.0,30.07,East,90,0.0,0.0,64,0.00,,,0.00,,2013-04-06 06:12:00,
2013-04-06 02:22:00,42.0,30.0,30.07,East,90,0.0,0.0,63,0.00,,,0.00,,2013-04-06 06:22:00,
2013-04-06 02:32:00,42.0,30.0,30.07,East,90,0.0,1.0,61,0.00,,,0.00,,2013-04-06 06:32:00,
2013-04-06 02:42:00,42.0,30.0,30.07,East,90,0.0,1.0,61,0.00,,,0.00,,2013-04-06 06:42:00,
2013-04-06 02:52:00,42.0,29.0,30.07,East,90,0.0,1.0,60,0.00,,,0.00,,2013-04-06 06:52:00,
2013-04-06 03:03:00,42.0,30.0,30.07,East,90,0.0,0.0,61,0.00,,,0.00,,2013-04-06 07:03:00,
2013-04-06 03:12:00,42.0,30.0,30.07,East,90,0.0,0.0,61,0.00,,,0.00,,2013-04-06 07:12:00,
2013-04-06 03:22:00,42.0,30.0,30.06,East,90,0.0,0.0,62,0.00,,,0.00,,2013-04-06 07:22:00,
2013-04-06 03:33:00,40.0,29.0,30.06,East,90,0.0,0.0,64,0.00,,,0.00,,2013-04-06 07:33:00,
2013-04-06 03:43:00,40.0,29.0,30.06,East,90,0.0,0.0,64,0.00,,,0.00,,2013-04-06 07:43:00,
2013-04-06 03:52:00,40.0,29.0,30.06,East,90,0.0,0.0,64,0.00,,,0.00,,2013-04-06 07:52:00,
2013-04-06 04:02:00,40.0,29.0,30.05,East,90,0.0,0.0,65,0.00,,,0.00,,2013-04-06 08:02:00,
2013-04-06 04:12:00,40.0,29.0,30.05,East,90,0.0,0.0,65,0.00,,,0.00,,2013-04-06 08:12:00,
2013-04-06 04:22:00,40.0,29.0,30.05,East,90,0.0,0.0,65,0.00,,,0.00,,2013-04-06 08:22:00,
2013-04-06 04:32:00,42.0,30.0,30.05,East,90,1.0,2.0,62,0.00,,,0.00,,2013-04-06 08:32:00,
2013-04-06 04:42:00,42.0,30.0,30.05,East,90,1.0,2.0,62,0.00,,,0.00,,2013-04-06 08:42:00,
2013-04-06 04:52:00,43.0,30.0,30.05,SE,135,2.0,3.0,61,0.00,,,0.00,,2013-04-06 08:52:00,
2013-04-06 05:02:00,43.0,30.0,30.05,SE,135,2.0,3.0,61,0.00,,,0.00,,2013-04-06 09:02:00,
2013-04-06 05:12:00,43.0,30.0,30.05,SE,135,2.0,3.0,61,0.00,,,0.00,,2013-04-06 09:12:00,
2013-04-06 05:22:00,42.0,31.0,30.06,SE,135,0.0,0.0,64,0.00,,,0.00,,2013-04-06 09:22:00,
2013-04-06 05:32:00,41.0,30.0,30.06,SE,135,1.0,2.0,65,0.00,,,0.00,,2013-04-06 09:32:00,
2013-04-06 05:43:00,41.0,30.0,30.06,SE,135,1.0,2.0,65,0.00,,,0.00,,2013-04-06 09:43:00,
2013-04-06 05:53:00,39.0,30.0,30.06,SE,135,0.0,0.0,71,0.00,,,0.00,,2013-04-06 09:53:00,
2013-04-06 06:03:00,38.0,31.0,30.06,SE,135,0.0,0.0,76,0.00,,,0.00,,2013-04-06 10:03:00,
2013-04-06 06:13:00,38.0,31.0,30.06,SE,135,0.0,0.0,76,0.00,,,0.00,,2013-04-06 10:13:00,
2013-04-06 06:22:00,40.0,31.0,30.05,SE,135,2.0,3.0,71,0.00,,,0.00,,2013-04-06 10:22:00,
2013-04-06 06:33:00,42.0,31.0,30.06,SE,135,2.0,3.0,65,0.00,,,0.00,,2013-04-06 10:33:00,
2013-04-06 06:42:00,42.0,31.0,30.06,SE,135,2.0,3.0,65,0.00,,,0.00,,2013-04-06 10:42:00,
2013-04-06 06:53:00,43.0,32.0,30.06,ESE,112,2.0,4.0,64,0.00,,,0.00,,2013-04-06 10:53:00,
2013-04-06 07:02:00,43.0,32.0,30.06,SE,135,2.0,4.0,65,0.00,,,0.00,,2013-04-06 11:02:00,
2013-04-06 07:12:00,43.0,32.0,30.06,SE,135,2.0,4.0,65,0.00,,,0.00,,2013-04-06 11:12:00,
2013-04-06 07:22:00,42.0,30.0,30.06,East,90,2.0,5.0,63,0.00,,,0.00,,2013-04-06 11:22:00,
2013-04-06 07:32:00,43.0,31.0,30.06,SE,135,1.0,2.0,62,0.00,,,0.00,,2013-04-06 11:32:00,
2013-04-06 07:43:00,43.0,31.0,30.06,SE,135,1.0,2.0,62,0.00,,,0.00,,2013-04-06 11:43:00,
2013-04-06 07:53:00,42.0,31.0,30.07,SE,135,0.0,0.0,64,0.00,,,0.00,,2013-04-06 11:53:00,
2013-04-06 08:02:00,42.0,31.0,30.07,SE,135,0.0,0.0,64,0.00,,,0.00,,2013-04-06 12:02:00,
2013-04-06 08:12:00,42.0,31.0,30.07,SE,135,0.0,0.0,64,0.00,,,0.00,,2013-04-06 12:12:00,
2013-04-06 08:22:00,42.0,31.0,30.08,SE,135,0.0,1.0,66,0.00,,,0.00,,2013-04-06 12:22:00,
2013-04-06 08:32:00,43.0,32.0,30.08,ESE,112,3.0,4.0,64,0.00,,,0.00,,2013-04-06 12:32:00,
2013-04-06 08:44:00,43.0,32.0,30.08,ESE,112,3.0,4.0,64,0.00,,,0.00,,2013-04-06 12:44:00,
2013-04-06 08:52:00,47.0,32.0,30.09,ESE,112,5.0,6.0,55,0.00,,,0.00,,2013-04-06 12:52:00,
2013-04-06 09:02:00,48.0,31.0,30.10,ESE,112,6.0,8.0,52,0.00,,,0.00,,2013-04-06 13:02:00,
2013-04-06 09:12:00,48.0,31.0,30.10,ESE,112,6.0,8.0,52,0.00,,,0.00,,2013-04-06 13:12:00,
2013-04-06 09:23:00,48.0,31.0,30.10,East,90,7.0,9.0,51,0.00,,,0.00,,2013-04-06 13:23:00,
2013-04-06 09:32:00,49.0,31.0,30.09,SE,135,9.0,16.0,49,0.00,,,0.00,,2013-04-06 13:32:00,
2013-04-06 09:42:00,49.0,31.0,30.09,SE,135,9.0,16.0,49,0.00,,,0.00,,2013-04-06 13:42:00,
2013-04-06 09:53:00,50.0,31.0,30.09,East,90,6.0,13.0,48,0.00,,,0.00,,2013-04-06 13:53:00,
2013-04-06 10:03:00,51.0,32.0,30.09,East,90,5.0,7.0,48,0.00,,,0.00,,2013-04-06 14:03:00,
2013-04-06 10:12:00,51.0,32.0,30.10,SE,135,6.0,12.0,48,0.00,,,0.00,,2013-04-06 14:12:00,
2013-04-06 10:22:00,51.0,32.0,30.10,SE,135,6.0,12.0,48,0.00,,,0.00,,2013-04-06 14:22:00,
2013-04-06 10:32:00,54.0,33.0,30.10,SE,135,7.0,13.0,45,0.00,,,0.00,,2013-04-06 14:32:00,
2013-04-06 10:42:00,54.0,33.0,30.10,SE,135,7.0,13.0,45,0.00,,,0.00,,2013-04-06 14:42:00,
2013-04-06 10:52:00,56.0,34.0,30.10,East,90,5.0,8.0,44,0.00,,,0.00,,2013-04-06 14:52:00,
2013-04-06 11:02:00,56.0,33.0,30.11,SE,135,5.0,8.0,42,0.00,,,0.00,,2013-04-06 15:02:00,
2013-04-06 11:12:00,56.0,33.0,30.11,SE,135,5.0,8.0,42,0.00,,,0.00,,2013-04-06 15:12:00,
2013-04-06 11:22:00,57.0,35.0,30.10,East,90,4.0,6.0,43,0.00,,,0.00,,2013-04-06 15:22:00,
2013-04-06 11:33:00,59.0,34.0,30.11,SW,225,5.0,9.0,39,0.00,,,0.00,,2013-04-06 15:33:00,
2013-04-06 11:43:00,59.0,34.0,30.11,SW,225,5.0,9.0,39,0.00,,,0.00,,2013-04-06 15:43:00,
2013-04-06 11:53:00,59.0,33.0,30.11,SE,135,4.0,8.0,38,0.00,,,0.00,,2013-04-06 15:53:00,
2013-04-06 12:04:00,59.0,34.0,30.10,SSW,202,5.0,8.0,39,0.00,,,0.00,,2013-04-06 16:04:00,
2013-04-06 12:17:00,59.0,34.0,30.10,SSW,202,5.0,8.0,39,0.00,,,0.00,,2013-04-06 16:17:00,
2013-04-06 12:23:00,58.0,33.0,30.10,SE,135,5.0,7.0,39,0.00,,,0.00,,2013-04-06 16:23:00,
2013-04-06 12:32:00,61.0,35.0,30.09,East,90,6.0,9.0,38,0.00,,,0.00,,2013-04-06 16:32:00,
2013-04-06 12:42:00,61.0,35.0,30.09,East,90,6.0,9.0,38,0.00,,,0.00,,2013-04-06 16:42:00,
2013-04-06 12:53:00,63.0,34.0,30.09,SSE,157,7.0,11.0,34,0.00,,,0.00,,2013-04-06 16:53:00,
2013-04-06 13:02:00,65.0,36.0,30.09,SSE,157,6.0,8.0,34,0.00,,,0.00,,2013-04-06 17:02:00,
2013-04-06 13:12:00,65.0,36.0,30.09,SSE,157,6.0,8.0,34,0.00,,,0.00,,2013-04-06 17:12:00,
2013-04-06 13:22:00,65.0,36.0,30.09,SSE,157,6.0,8.0,34,0.00,,,0.00,,2013-04-06 17:22:00,
2013-04-06 13:32:00,67.0,37.0,30.08,South,180,7.0,15.0,33,0.00,,,0.00,,2013-04-06 17:32:00,
2013-04-06 13:42:00,67.0,37.0,30.08,South,180,7.0,15.0,33,0.00,,,0.00,,2013-04-06 17:42:00,
2013-04-06 13:52:00,68.0,37.0,30.07,ESE,112,8.0,13.0,32,0.00,,,0.00,,2013-04-06 17:52:00,
2013-04-06 14:03:00,68.0,37.0,30.07,SSE,157,4.0,7.0,32,0.00,,,0.00,,2013-04-06 18:03:00,
2013-04-06 14:12:00,68.0,37.0,30.07,SSE,157,4.0,7.0,32,0.00,,,0.00,,2013-04-06 18:12:00,
2013-04-06 14:32:00,70.0,38.0,30.05,South,180,6.0,9.0,31,0.00,,,0.00,,2013-04-06 18:32:00,
2013-04-06 14:43:00,70.0,38.0,30.05,South,180,6.0,9.0,31,0.00,,,0.00,,2013-04-06 18:43:00,
2013-04-06 14:52:00,71.0,38.0,30.05,South,180,5.0,7.0,30,0.00,,,0.00,,2013-04-06 18:52:00,
2013-04-06 15:02:00,72.0,38.0,30.03,East,90,5.0,10.0,29,0.00,,,0.00,,2013-04-06 19:02:00,
2013-04-06 15:12:00,72.0,38.0,30.03,East,90,5.0,10.0,29,0.00,,,0.00,,2013-04-06 19:12:00,
2013-04-06 15:22:00,74.0,40.0,30.02,SW,225,5.0,7.0,29,0.00,,,0.00,,2013-04-06 19:22:00,
2013-04-06 15:32:00,75.0,39.0,30.02,SW,225,4.0,6.0,27,0.00,,,0.00,,2013-04-06 19:32:00,
2013-04-06 15:42:00,75.0,39.0,30.02,SW,225,4.0,6.0,27,0.00,,,0.00,,2013-04-06 19:42:00,
2013-04-06 15:53:00,74.0,38.0,30.01,SE,135,8.0,13.0,27,0.00,,,0.00,,2013-04-06 19:53:00,
2013-04-06 16:02:00,74.0,38.0,29.98,SW,225,6.0,10.0,27,0.00,,,0.00,,2013-04-06 20:02:00,
2013-04-06 16:12:00,74.0,38.0,29.98,SW,225,6.0,10.0,27,0.00,,,0.00,,2013-04-06 20:12:00,
2013-04-06 16:22:00,73.0,39.0,29.98,SW,225,3.0,6.0,29,0.00,,,0.00,,2013-04-06 20:22:00,
2013-04-06 16:32:00,73.0,38.0,29.96,South,180,7.0,12.0,28,0.00,,,0.00,,2013-04-06 20:32:00,
2013-04-06 16:42:00,73.0,38.0,29.96,South,180,7.0,12.0,28,0.00,,,0.00,,2013-04-06 20:42:00,
2013-04-06 16:52:00,73.0,38.0,29.95,SE,135,6.0,10.0,28,0.00,,,0.00,,2013-04-06 20:52:00,
2013-04-06 17:02:00,73.0,37.0,29.94,South,180,7.0,12.0,27,0.00,,,0.00,,2013-04-06 21:02:00,
2013-04-06 17:13:00,73.0,38.0,29.94,SSW,202,5.0,10.0,28,0.00,,,0.00,,2013-04-06 21:13:00,
2013-04-06 17:22:00,73.0,38.0,29.94,SSW,202,5.0,10.0,28,0.00,,,0.00,,2013-04-06 21:22:00,
2013-04-06 17:33:00,74.0,38.0,29.93,SSW,202,2.0,5.0,27,0.00,,,0.00,,2013-04-06 21:33:00,
2013-04-06 17:43:00,74.0,38.0,29.93,SSW,202,2.0,5.0,27,0.00,,,0.00,,2013-04-06 21:43:00,
2013-04-06 17:53:00,74.0,38.0,29.93,SW,225,7.0,13.0,27,0.00,,,0.00,,2013-04-06 21:53:00,
2013-04-06 18:03:00,74.0,37.0,29.92,NW,315,6.0,9.0,26,0.00,,,0.00,,2013-04-06 22:03:00,
2013-04-06 18:13:00,74.0,37.0,29.92,NW,315,6.0,9.0,26,0.00,,,0.00,,2013-04-06 22:13:00,
2013-04-06 18:23:00,74.0,38.0,29.92,SSE,157,5.0,7.0,27,0.00,,,0.00,,2013-04-06 22:23:00,
2013-04-06 18:34:00,73.0,37.0,29.92,South,180,6.0,9.0,27,0.00,,,0.00,,2013-04-06 22:34:00,
2013-04-06 18:43:00,73.0,37.0,29.92,South,180,6.0,9.0,27,0.00,,,0.00,,2013-04-06 22:43:00,
2013-04-06 18:53:00,73.0,38.0,29.91,WSW,247,5.0,9.0,28,0.00,,,0.00,,2013-04-06 22:53:00,
2013-04-06 19:03:00,73.0,38.0,29.90,SW,225,5.0,9.0,28,0.00,,,0.00,,2013-04-06 23:03:00,
2013-04-06 19:13:00,73.0,38.0,29.90,SW,225,5.0,9.0,28,0.00,,,0.00,,2013-04-06 23:13:00,
2013-04-06 19:23:00,71.0,38.0,29.90,SW,225,5.0,7.0,30,0.00,,,0.00,,2013-04-06 23:23:00,
2013-04-06 19:33:00,71.0,40.0,29.89,SSE,157,4.0,6.0,32,0.00,,,0.00,,2013-04-06 23:33:00,
2013-04-06 19:42:00,71.0,40.0,29.89,SSE,157,4.0,6.0,32,0.00,,,0.00,,2013-04-06 23:42:00,
2013-04-06 19:53:00,70.0,39.0,29.89,South,180,7.0,12.0,32,0.00,,,0.00,,2013-04-06 23:53:00,
2013-04-06 20:02:00,70.0,39.0,29.89,SW,225,6.0,10.0,32,0.00,,,0.00,,2013-04-07 00:02:00,
2013-04-06 20:12:00,70.0,39.0,29.89,SW,225,6.0,10.0,32,0.00,,,0.00,,2013-04-07 00:12:00,
2013-04-06 20:22:00,69.0,38.0,29.90,South,180,7.0,13.0,32,0.00,,,0.00,,2013-04-07 00:22:00,
2013-04-06 20:33:00,69.0,39.0,29.90,South,180,3.0,5.0,33,0.00,,,0.00,,2013-04-07 00:33:00,
2013-04-06 20:42:00,69.0,39.0,29.90,South,180,3.0,5.0,33,0.00,,,0.00,,2013-04-07 00:42:00,
2013-04-06 20:52:00,67.0,38.0,29.90,SSW,202,3.0,7.0,34,0.00,,,0.00,,2013-04-07 00:52:00,
2013-04-06 21:02:00,67.0,38.0,29.90,SSW,202,3.0,7.0,34,0.00,,,0.00,,2013-04-07 01:02:00,
2013-04-06 21:12:00,67.0,38.0,29.90,SSW,202,3.0,7.0,34,0.00,,,0.00,,2013-04-07 01:12:00,
2013-04-06 21:23:00,66.0,38.0,29.90,SSW,202,3.0,6.0,36,0.00,,,0.00,,2013-04-07 01:23:00,
2013-04-06 21:32:00,65.0,39.0,29.90,SW,225,3.0,6.0,38,0.00,,,0.00,,2013-04-07 01:32:00,
2013-04-06 21:43:00,65.0,39.0,29.90,SW,225,3.0,6.0,38,0.00,,,0.00,,2013-04-07 01:43:00,
2013-04-06 21:52:00,65.0,39.0,29.90,SW,225,3.0,6.0,38,0.00,,,0.00,,2013-04-07 01:52:00,
2013-04-06 22:03:00,65.0,39.0,29.88,South,180,3.0,6.0,38,0.00,,,0.00,,2013-04-07 02:03:00,
2013-04-06 22:12:00,65.0,39.0,29.88,South,180,3.0,6.0,38,0.00,,,0.00,,2013-04-07 02:12:00,
2013-04-06 22:23:00,65.0,39.0,29.89,SE,135,4.0,8.0,39,0.00,,,0.00,,2013-04-07 02:23:00,
2013-04-06 22:32:00,64.0,39.0,29.89,SE,135,7.0,10.0,40,0.00,,,0.00,,2013-04-07 02:32:00,
2013-04-06 22:42:00,64.0,39.0,29.89,SE,135,7.0,10.0,40,0.00,,,0.00,,2013-04-07 02:42:00,
2013-04-06 22:52:00,64.0,39.0,29.88,South,180,7.0,11.0,40,0.00,,,0.00,,2013-04-07 02:52:00,
2013-04-06 23:02:00,64.0,39.0,29.88,SW,225,6.0,10.0,40,0.00,,,0.00,,2013-04-07 03:02:00,
2013-04-06 23:12:00,64.0,39.0,29.88,SW,225,6.0,10.0,40,0.00,,,0.00,,2013-04-07 03:12:00,
2013-04-06 23:22:00,64.0,39.0,29.88,South,180,5.0,7.0,40,0.00,,,0.00,,2013-04-07 03:22:00,
2013-04-06 23:33:00,64.0,39.0,29.88,South,180,5.0,7.0,40,0.00,,,0.00,,2013-04-07 03:33:00,
2013-04-06 23:43:00,64.0,39.0,29.88,South,180,5.0,7.0,40,0.00,,,0.00,,2013-04-07 03:43:00,
2013-04-06 23:54:00,64.0,39.0,29.88,South,180,5.0,9.0,40,0.00,,,0.00,,2013-04-07 03:54:00,